Starlink 32242

operational
NORAD ID: 60429 Int'l Des: 2024-144 Owner: SPXS Country: US Constellation: starlink
LEOCIRCULAR

About Starlink 32242

Description loading...

Live Position

Loading 3D Globe...

Upcoming Passes

Altitude History

Altitude vs Time

uPlot chart will show altitude changes over time

Two-Line Element Set

1 60429U 24144E 25303.49512529 .00000307 00000-0 22500-4 0 9999
2 60429 53.1560 102.0237 0001724 94.9357 265.1840 15.30185758 69418
Epoch: Oct 30, 2025 • Age: 28 hours

Current Status

Altitude 489.8 km
Velocity 7.62 km/s
Sub-Earth Point -40.90°S, 138.28°E
Launch Date Aug 12, 2024
Age 1.2 years
Type internet

Technical Details

Classification Payload
Mass 730.00 kg
Dry Mass 700.00 kg
Total Mass 730.00 kg
Length 0.30 m
Diameter 4.10 m
Span 29.00 m
Shape Box + pan
Manufacturer SPXS
Bus Type Starlink V2M
Phase Status In Orbit
Owner/State SPXS/US

Large Constellations

Loading constellations...